Wind_Speed
18 19 21 23 24 28 30 33 36 38 39 40 41 39 40 42 44 45 46 47 48 50 52 52 53 53 53
20 20 22 24 27 31 34 36 38 39 40 39 39 39 41 43 45 46 47 49 50 51 51 51 51 48 45
21 21 23 28 31 34 36 37 39 40 38 37 38 39 41 44 46 49 50 50 48 48 49 49 48 46 44
22 24 27 30 34 36 36 37 38 36 35 36 37 38 42 45 47 48 49 49 48 47 49 48 47 45 43
24 28 30 34 36 35 35 36 34 32 35 33 34 38 41 43 45 45 47 48 48 47 48 48 47 45 42
27 31 33 38 34 35 34 33 30 29 29 31 33 36 38 41 43 44 45 44 44 45 46 46 44 44 43
29 34 36 37 34 34 34 34 31 28 28 29 30 32 34 35 38 40 41 41 41 42 43 44 44 43 42
35 37 37 32 32 31 32 31 30 29 30 31 29 29 31 34 35 37 38 38 38 39 41 40 39 39 40
37 35 34 30 30 29 28 28 28 29 31 34 37 37 34 35 36 35 36 35 35 37 38 38 37 37 36
33 32 30 29 27 26 26 26 27 28 30 33 37 41 44 38 37 36 35 36 35 34 34 36 36 36 34
30 29 28 27 24 25 25 26 28 30 32 35 37 39 40 45 40 38 38 37 37 37 35 36 38 38 37
29 28 25 22 23 23 24 25 28 31 34 36 37 38 40 43 43 40 39 40 39 38 36 34 36 36 34
28 26 19 21 22 21 23 25 28 32 34 35 36 36 39 42 44 42 42 40 40 38 36 35 37 37 36
26 20 17 19 19 20 22 23 26 28 31 33 34 36 37 37 39 39 39 40 39 40 38 35 34 34 34
21 13 18 17 18 19 20 22 24 25 26 29 31 32 32 33 35 37 38 38 38 40 40 36 31 34 34
11 15 15 16 17 18 19 21 22 24 26 27 28 27 28 28 32 38 39 43 43 41 39 38 32 31 32
12 15 15 16 17 18 19 20 21 23 25 26 28 31 33 35 33 33 41 42 45 45 41 36 35 33 32
Wind_Direction
292 296 298 305 306 308 310 313 315 317 317 318 317 317 317 317 318 319 320 320 322 323 323 322 321 320 320
288 293 300 304 309 309 313 315 316 317 317 317 317 317 319 319 319 320 322 325 326 326 326 324 323 324 325
287 293 298 301 304 309 312 315 317 318 317 317 317 320 320 320 320 325 328 327 327 326 327 325 324 327 327
284 290 295 300 306 308 311 314 316 315 316 318 320 322 320 324 329 329 329 328 328 328 326 324 324 325 326
282 288 295 302 304 306 310 312 313 316 317 318 320 325 328 327 327 329 328 328 328 326 325 323 322 320 320
281 290 299 303 302 307 308 310 310 312 316 320 325 327 329 327 329 330 328 328 327 326 322 321 321 320 319
282 289 297 302 304 307 309 309 310 316 320 325 328 329 329 330 331 328 329 330 328 325 322 323 322 320 317
281 291 297 300 302 305 307 308 312 320 324 325 329 331 333 334 332 333 335 334 331 328 326 326 325 322 322
288 292 297 302 303 304 304 307 315 322 325 327 328 332 337 336 336 339 337 335 334 334 332 330 327 325 326
290 291 297 300 299 301 302 307 315 321 325 329 330 331 332 339 338 339 338 338 340 338 335 331 329 327 329
285 292 297 298 299 300 303 313 321 323 328 330 333 335 334 331 337 337 337 337 338 337 339 336 332 332 333
284 289 292 295 296 299 308 317 322 326 329 333 336 336 335 333 334 335 335 335 335 332 336 336 332 334 334
283 286 288 292 295 304 314 320 326 329 332 336 337 337 336 332 330 335 334 331 329 330 333 339 334 333 334
279 279 288 290 298 307 315 323 327 329 333 336 339 339 336 333 332 332 330 329 329 328 329 336 335 335 336
273 280 281 290 299 308 317 324 326 330 335 340 341 341 340 339 339 337 338 336 335 331 328 330 339 336 338
270 278 285 292 301 312 319 323 328 332 338 342 342 344 348 351 347 342 344 342 341 337 330 329 334 338 337
272 275 282 293 305 314 320 324 331 336 339 340 341 343 344 345 348 345 341 341 340 339 334 332 333 337 336
Height
3161 3159 3157 3154 3152 3149 3145 3141 3137 3132 3127 3123 3118 3113 3108 3103 3097 3091 3086 3079 3072 3065 3058 3051 3043 3035 3029
3155 3154 3152 3149 3147 3144 3140 3136 3131 3126 3120 3115 3111 3106 3100 3095 3089 3084 3078 3070 3063 3055 3048 3041 3033 3026 3019
3151 3149 3147 3144 3141 3138 3133 3129 3124 3120 3115 3110 3105 3098 3092 3087 3081 3074 3066 3060 3054 3047 3039 3032 3025 3017 3011
3145 3144 3142 3139 3135 3132 3127 3122 3118 3113 3109 3104 3098 3092 3085 3078 3070 3065 3058 3051 3044 3037 3030 3022 3015 3009 3002
3140 3138 3136 3134 3130 3125 3122 3118 3114 3109 3102 3099 3093 3086 3079 3071 3065 3059 3051 3042 3036 3029 3022 3013 3007 3002 2997
3135 3133 3130 3127 3124 3120 3116 3112 3110 3106 3100 3094 3088 3081 3074 3066 3059 3052 3045 3038 3030 3023 3015 3007 3000 2994 2988
3130 3127 3124 3121 3119 3114 3110 3106 3104 3100 3095 3090 3084 3077 3069 3063 3055 3047 3040 3033 3024 3017 3009 3002 2994 2987 2981
3123 3121 3118 3115 3111 3107 3103 3100 3096 3092 3087 3082 3079 3072 3065 3058 3051 3043 3034 3026 3019 3012 3003 2996 2989 2982 2975
3117 3114 3112 3109 3105 3101 3098 3095 3090 3085 3080 3074 3068 3063 3058 3052 3044 3037 3030 3022 3015 3007 2999 2991 2984 2977 2970
3110 3108 3106 3102 3099 3095 3092 3089 3085 3081 3077 3072 3064 3055 3047 3044 3037 3030 3024 3016 3009 3002 2994 2986 2978 2971 2965
3103 3101 3099 3096 3093 3090 3088 3083 3078 3074 3069 3063 3057 3050 3043 3033 3030 3023 3016 3009 3002 2995 2989 2980 2971 2964 2957
3096 3094 3091 3089 3088 3086 3082 3077 3072 3067 3062 3057 3051 3044 3036 3028 3021 3018 3010 3002 2995 2989 2984 2976 2968 2961 2954
3090 3088 3086 3085 3084 3081 3078 3073 3067 3062 3056 3050 3044 3039 3031 3023 3016 3009 3003 2998 2990 2984 2978 2971 2962 2955 2948
3083 3081 3081 3081 3079 3076 3073 3069 3064 3059 3052 3046 3040 3034 3029 3022 3013 3007 3000 2992 2987 2979 2972 2968 2960 2952 2945
3076 3077 3077 3076 3075 3072 3069 3065 3061 3056 3051 3043 3037 3032 3027 3019 3011 3003 2997 2990 2983 2973 2965 2961 2957 2947 2941
3072 3073 3073 3072 3070 3067 3064 3060 3056 3051 3046 3040 3036 3032 3027 3020 3008 3000 2993 2983 2976 2969 2961 2953 2951 2945 2938
3069 3069 3068 3067 3065 3062 3059 3055 3051 3046 3040 3036 3031 3025 3019 3013 3010 2998 2987 2981 2971 2963 2956 2950 2943 2939 2933